Time,TemperatureF,DewpointF,PressureIn,WindDirection,WindDirectionDegrees,WindSpeedMPH,WindSpeedGustMPH,Humidity,HourlyPrecipIn,Conditions,Clouds,dailyrainin,SolarRadiationWatts/m^2,SoftwareType,DateUTC
2013-08-28 00:08:00,68.3,66.0,29.93,West,275,0.0,-999.0,93,-99.99,,,0.00,0,weatherlink.com 1.10,2013-08-28 04:08:00,
2013-08-28 00:23:00,68.4,66.0,29.93,West,275,0.0,-999.0,93,-99.99,,,0.00,0,weatherlink.com 1.10,2013-08-28 04:23:00,
2013-08-28 00:38:00,68.3,66.0,29.93,West,275,0.0,-999.0,93,-99.99,,,0.00,0,weatherlink.com 1.10,2013-08-28 04:38:00,
2013-08-28 00:53:00,68.2,67.0,29.93,West,275,0.0,-999.0,94,-99.99,,,0.00,0,weatherlink.com 1.10,2013-08-28 04:53:00,
2013-08-28 01:08:00,68.4,67.0,29.92,West,275,0.0,-999.0,94,-99.99,,,0.00,0,weatherlink.com 1.10,2013-08-28 05:08:00,
2013-08-28 01:23:00,68.4,67.0,29.91,West,275,0.0,-999.0,94,-99.99,,,0.00,0,weatherlink.com 1.10,2013-08-28 05:23:00,
2013-08-28 01:38:00,68.3,67.0,29.91,West,275,0.0,-999.0,94,-99.99,,,0.00,0,weatherlink.com 1.10,2013-08-28 05:38:00,
2013-08-28 01:53:00,68.1,66.0,29.91,West,275,0.0,-999.0,94,-99.99,,,0.00,0,weatherlink.com 1.10,2013-08-28 05:53:00,
2013-08-28 02:08:00,68.0,66.0,29.90,West,275,0.0,-999.0,94,-99.99,,,0.00,0,weatherlink.com 1.10,2013-08-28 06:08:00,
2013-08-28 02:23:00,67.8,66.0,29.90,West,275,0.0,-999.0,94,-99.99,,,0.00,0,weatherlink.com 1.10,2013-08-28 06:23:00,
2013-08-28 02:38:00,67.7,66.0,29.90,West,275,0.0,-999.0,94,-99.99,,,0.00,0,weatherlink.com 1.10,2013-08-28 06:38:00,
2013-08-28 02:53:00,67.5,66.0,29.89,West,275,0.0,-999.0,94,-99.99,,,0.00,0,weatherlink.com 1.10,2013-08-28 06:53:00,
2013-08-28 03:08:00,67.3,66.0,29.89,West,275,0.0,-999.0,94,-99.99,,,0.00,0,weatherlink.com 1.10,2013-08-28 07:08:00,
2013-08-28 03:23:00,67.3,66.0,29.89,West,275,0.0,-999.0,94,-99.99,,,0.00,0,weatherlink.com 1.10,2013-08-28 07:23:00,
2013-08-28 03:38:00,67.2,66.0,29.88,West,275,0.0,-999.0,95,-99.99,,,0.00,0,weatherlink.com 1.10,2013-08-28 07:38:00,
2013-08-28 03:53:00,67.2,66.0,29.88,West,275,0.0,-999.0,95,-99.99,,,0.00,0,weatherlink.com 1.10,2013-08-28 07:53:00,
2013-08-28 04:08:00,67.2,66.0,29.88,West,275,0.0,-999.0,95,-99.99,,,0.00,0,weatherlink.com 1.10,2013-08-28 08:08:00,
2013-08-28 04:23:00,67.1,66.0,29.88,West,275,0.0,-999.0,95,-99.99,,,0.00,0,weatherlink.com 1.10,2013-08-28 08:23:00,
2013-08-28 04:38:00,67.0,66.0,29.88,West,275,0.0,-999.0,95,-99.99,,,0.00,0,weatherlink.com 1.10,2013-08-28 08:38:00,
2013-08-28 04:53:00,66.9,66.0,29.88,West,275,0.0,-999.0,95,-99.99,,,0.00,0,weatherlink.com 1.10,2013-08-28 08:53:00,
2013-08-28 05:08:00,66.8,65.0,29.88,West,275,0.0,-999.0,95,-99.99,,,0.00,0,weatherlink.com 1.10,2013-08-28 09:08:00,
2013-08-28 05:23:00,66.7,65.0,29.88,West,275,0.0,-999.0,95,-99.99,,,0.00,0,weatherlink.com 1.10,2013-08-28 09:23:00,
2013-08-28 05:38:00,66.7,65.0,29.88,West,275,0.0,-999.0,95,-99.99,,,0.00,0,weatherlink.com 1.10,2013-08-28 09:38:00,
2013-08-28 05:53:00,66.7,65.0,29.88,West,275,0.0,-999.0,95,-99.99,,,0.00,0,weatherlink.com 1.10,2013-08-28 09:53:00,
2013-08-28 06:08:00,66.7,65.0,29.89,West,275,0.0,-999.0,95,-99.99,,,0.00,0,weatherlink.com 1.10,2013-08-28 10:08:00,
2013-08-28 06:23:00,66.8,65.0,29.89,West,275,0.0,-999.0,95,-99.99,,,0.00,0,weatherlink.com 1.10,2013-08-28 10:23:00,
2013-08-28 06:38:00,66.8,65.0,29.89,West,275,0.0,-999.0,95,-99.99,,,0.00,0,weatherlink.com 1.10,2013-08-28 10:38:00,
2013-08-28 06:53:00,66.8,65.0,29.90,West,275,0.0,-999.0,95,-99.99,,,0.00,9,weatherlink.com 1.10,2013-08-28 10:53:00,
2013-08-28 07:08:00,67.0,66.0,29.90,West,275,0.0,-999.0,96,-99.99,,,0.00,12,weatherlink.com 1.10,2013-08-28 11:08:00,
2013-08-28 07:23:00,67.2,66.0,29.89,West,275,0.0,-999.0,96,-99.99,,,0.00,14,weatherlink.com 1.10,2013-08-28 11:23:00,
2013-08-28 07:38:00,67.4,66.0,29.89,West,275,0.0,-999.0,96,-99.99,,,0.00,21,weatherlink.com 1.10,2013-08-28 11:38:00,
2013-08-28 07:53:00,67.7,67.0,29.90,West,275,0.0,-999.0,96,-99.99,,,0.00,49,weatherlink.com 1.10,2013-08-28 11:53:00,
2013-08-28 08:08:00,68.3,67.0,29.89,West,275,0.0,-999.0,96,-99.99,,,0.00,91,weatherlink.com 1.10,2013-08-28 12:08:00,
2013-08-28 08:23:00,68.9,68.0,29.89,West,275,0.0,-999.0,96,-99.99,,,0.00,51,weatherlink.com 1.10,2013-08-28 12:23:00,
2013-08-28 08:38:00,69.2,68.0,29.90,West,275,0.0,-999.0,96,-99.99,,,0.00,35,weatherlink.com 1.10,2013-08-28 12:38:00,
2013-08-28 08:53:00,69.6,69.0,29.90,West,275,0.0,-999.0,96,-99.99,,,0.00,32,weatherlink.com 1.10,2013-08-28 12:53:00,
2013-08-28 09:08:00,70.0,69.0,29.90,West,275,0.0,-999.0,96,-99.99,,,0.00,25,weatherlink.com 1.10,2013-08-28 13:08:00,
2013-08-28 09:23:00,70.3,69.0,29.90,West,270,0.0,-999.0,96,-99.99,,,0.00,72,weatherlink.com 1.10,2013-08-28 13:23:00,
2013-08-28 09:38:00,71.0,70.0,29.89,West,275,0.0,-999.0,97,-99.99,,,0.00,130,weatherlink.com 1.10,2013-08-28 13:38:00,
2013-08-28 09:53:00,71.7,71.0,29.89,West,275,0.0,-999.0,97,-99.99,,,0.00,76,weatherlink.com 1.10,2013-08-28 13:53:00,
2013-08-28 10:08:00,72.1,71.0,29.91,NE,38,1.0,-999.0,96,-99.99,,,0.00,0,weatherlink.com 1.10,2013-08-28 14:08:00,
2013-08-28 10:23:00,71.6,70.0,29.90,North,360,2.0,-999.0,96,-99.99,,,0.00,18,weatherlink.com 1.10,2013-08-28 14:23:00,
2013-08-28 10:38:00,71.6,70.0,29.90,NNE,14,0.0,-999.0,96,-99.99,,,0.00,67,weatherlink.com 1.10,2013-08-28 14:38:00,
2013-08-28 10:53:00,71.8,71.0,29.89,NNE,13,0.0,-999.0,96,-99.99,,,0.00,81,weatherlink.com 1.10,2013-08-28 14:53:00,
2013-08-28 11:08:00,72.1,71.0,29.89,NNE,13,0.0,-999.0,96,-99.99,,,0.00,65,weatherlink.com 1.10,2013-08-28 15:08:00,
2013-08-28 11:23:00,72.1,71.0,29.89,NNE,13,0.0,-999.0,96,-99.99,,,0.00,144,weatherlink.com 1.10,2013-08-28 15:23:00,
2013-08-28 11:38:00,72.8,72.0,29.89,NNE,13,0.0,-999.0,97,-99.99,,,0.00,158,weatherlink.com 1.10,2013-08-28 15:38:00,
2013-08-28 11:53:00,73.1,72.0,29.90,NNE,13,0.0,-999.0,96,-99.99,,,0.00,83,weatherlink.com 1.10,2013-08-28 15:53:00,
2013-08-28 12:08:00,73.0,72.0,29.89,NNE,13,0.0,-999.0,96,-99.99,,,0.00,97,weatherlink.com 1.10,2013-08-28 16:08:00,
2013-08-28 12:23:00,72.7,72.0,29.89,NNE,13,0.0,-999.0,96,-99.99,,,0.00,107,weatherlink.com 1.10,2013-08-28 16:23:00,
2013-08-28 12:38:00,73.1,72.0,29.88,NNE,13,0.0,-999.0,97,-99.99,,,0.00,148,weatherlink.com 1.10,2013-08-28 16:38:00,
2013-08-28 12:53:00,73.4,72.0,29.88,NNE,14,0.0,-999.0,96,-99.99,,,0.00,432,weatherlink.com 1.10,2013-08-28 16:53:00,
2013-08-28 13:08:00,74.1,73.0,29.88,NNE,13,0.0,-999.0,97,-99.99,,,0.00,394,weatherlink.com 1.10,2013-08-28 17:08:00,
2013-08-28 13:23:00,74.5,73.0,29.88,NNE,13,0.0,-999.0,96,-99.99,,,0.00,262,weatherlink.com 1.10,2013-08-28 17:23:00,
2013-08-28 13:38:00,75.0,74.0,29.88,NNE,13,0.0,-999.0,96,-99.99,,,0.00,338,weatherlink.com 1.10,2013-08-28 17:38:00,
2013-08-28 14:23:00,77.1,74.0,29.87,ENE,58,0.0,-999.0,91,-99.99,,,0.00,165,weatherlink.com 1.10,2013-08-28 18:23:00,
2013-08-28 14:38:00,77.4,74.0,29.86,ENE,58,0.0,-999.0,90,-99.99,,,0.00,118,weatherlink.com 1.10,2013-08-28 18:38:00,
2013-08-28 14:53:00,77.1,74.0,29.86,ENE,58,0.0,-999.0,89,-99.99,,,0.00,81,weatherlink.com 1.10,2013-08-28 18:53:00,
2013-08-28 15:08:00,76.7,73.0,29.86,ENE,58,0.0,-999.0,89,-99.99,,,0.00,32,weatherlink.com 1.10,2013-08-28 19:08:00,
2013-08-28 15:23:00,75.9,73.0,29.86,ENE,58,0.0,-999.0,90,-99.99,,,0.00,25,weatherlink.com 1.10,2013-08-28 19:23:00,
2013-08-28 15:38:00,75.5,73.0,29.86,ENE,58,1.0,-999.0,91,-99.99,,,0.00,51,weatherlink.com 1.10,2013-08-28 19:38:00,
2013-08-28 15:53:00,74.8,72.0,29.86,ENE,58,0.0,-999.0,91,-99.99,,,0.00,54,weatherlink.com 1.10,2013-08-28 19:53:00,
2013-08-28 16:08:00,74.2,72.0,29.86,ENE,58,0.0,-999.0,92,-99.99,,,0.00,67,weatherlink.com 1.10,2013-08-28 20:08:00,
2013-08-28 16:23:00,73.6,72.0,29.85,NE,55,1.0,-999.0,93,-99.99,,,0.00,83,weatherlink.com 1.10,2013-08-28 20:23:00,
2013-08-28 16:38:00,73.2,71.0,29.86,NE,56,0.0,-999.0,93,-99.99,,,0.00,12,weatherlink.com 1.10,2013-08-28 20:38:00,
2013-08-28 16:53:00,72.7,71.0,29.86,NE,56,0.0,-999.0,93,-99.99,,,0.00,16,weatherlink.com 1.10,2013-08-28 20:53:00,
2013-08-28 17:08:00,72.1,70.0,29.86,ENE,57,0.0,-999.0,93,-99.99,,,0.00,30,weatherlink.com 1.10,2013-08-28 21:08:00,
2013-08-28 17:23:00,71.8,70.0,29.86,ENE,57,0.0,-999.0,94,-99.99,,,0.00,23,weatherlink.com 1.10,2013-08-28 21:23:00,
2013-08-28 17:38:00,71.7,70.0,29.86,ENE,57,0.0,-999.0,94,-99.99,,,0.00,21,weatherlink.com 1.10,2013-08-28 21:38:00,
2013-08-28 17:53:00,71.7,70.0,29.86,ENE,57,0.0,-999.0,94,-99.99,,,0.00,19,weatherlink.com 1.10,2013-08-28 21:53:00,
2013-08-28 18:08:00,71.6,70.0,29.86,ENE,57,1.0,-999.0,95,-99.99,,,0.00,9,weatherlink.com 1.10,2013-08-28 22:08:00,
2013-08-28 18:23:00,71.5,70.0,29.86,ENE,57,0.0,-999.0,95,-99.99,,,0.00,0,weatherlink.com 1.10,2013-08-28 22:23:00,
2013-08-28 18:38:00,71.5,70.0,29.86,ENE,57,0.0,-999.0,95,-99.99,,,0.00,7,weatherlink.com 1.10,2013-08-28 22:38:00,
2013-08-28 18:53:00,71.5,70.0,29.86,ENE,57,0.0,-999.0,95,-99.99,,,0.00,0,weatherlink.com 1.10,2013-08-28 22:53:00,
2013-08-28 19:08:00,71.4,70.0,29.87,ENE,57,0.0,-999.0,95,-99.99,,,0.00,0,weatherlink.com 1.10,2013-08-28 23:08:00,
2013-08-28 19:23:00,71.2,70.0,29.87,ENE,57,0.0,-999.0,95,-99.99,,,0.00,0,weatherlink.com 1.10,2013-08-28 23:23:00,
2013-08-28 19:38:00,71.0,70.0,29.87,ENE,57,0.0,-999.0,95,-99.99,,,0.00,0,weatherlink.com 1.10,2013-08-28 23:38:00,
2013-08-28 19:53:00,70.8,69.0,29.87,ENE,57,0.0,-999.0,95,-99.99,,,0.00,0,weatherlink.com 1.10,2013-08-28 23:53:00,
2013-08-28 20:08:00,70.7,69.0,29.88,ENE,57,0.0,-999.0,95,-99.99,,,0.00,0,weatherlink.com 1.10,2013-08-29 00:08:00,
2013-08-28 20:23:00,70.5,69.0,29.87,ENE,57,0.0,-999.0,95,-99.99,,,0.00,0,weatherlink.com 1.10,2013-08-29 00:23:00,
2013-08-28 20:38:00,70.3,69.0,29.88,ENE,57,0.0,-999.0,95,-99.99,,,0.00,0,weatherlink.com 1.10,2013-08-29 00:38:00,
2013-08-28 20:53:00,70.0,69.0,29.88,ENE,57,0.0,-999.0,95,-99.99,,,0.00,0,weatherlink.com 1.10,2013-08-29 00:53:00,
2013-08-28 21:08:00,69.8,68.0,29.88,ENE,57,0.0,-999.0,95,-99.99,,,0.00,0,weatherlink.com 1.10,2013-08-29 01:08:00,
2013-08-28 21:23:00,69.9,69.0,29.89,ENE,57,0.0,-999.0,96,-99.99,,,0.00,0,weatherlink.com 1.10,2013-08-29 01:23:00,
2013-08-28 21:38:00,69.8,69.0,29.89,ENE,57,0.0,-999.0,96,-99.99,,,0.00,0,weatherlink.com 1.10,2013-08-29 01:38:00,
2013-08-28 21:53:00,69.7,69.0,29.90,ENE,57,0.0,-999.0,96,-99.99,,,0.00,0,weatherlink.com 1.10,2013-08-29 01:53:00,
2013-08-28 22:08:00,69.5,68.0,29.89,ENE,57,0.0,-999.0,96,-99.99,,,0.00,0,weatherlink.com 1.10,2013-08-29 02:08:00,
2013-08-28 22:23:00,69.4,68.0,29.90,ENE,57,0.0,-999.0,96,-99.99,,,0.00,0,weatherlink.com 1.10,2013-08-29 02:23:00,
2013-08-28 22:38:00,69.2,68.0,29.90,ENE,57,0.0,-999.0,96,-99.99,,,0.00,0,weatherlink.com 1.10,2013-08-29 02:38:00,
2013-08-28 22:53:00,69.1,68.0,29.90,ENE,57,0.0,-999.0,96,-99.99,,,0.00,0,weatherlink.com 1.10,2013-08-29 02:53:00,
2013-08-28 23:08:00,69.0,68.0,29.89,ENE,57,0.0,-999.0,96,-99.99,,,0.00,0,weatherlink.com 1.10,2013-08-29 03:08:00,
2013-08-28 23:23:00,69.1,68.0,29.90,ENE,57,0.0,-999.0,96,-99.99,,,0.00,0,weatherlink.com 1.10,2013-08-29 03:23:00,
2013-08-28 23:38:00,69.0,68.0,29.90,ENE,57,0.0,-999.0,96,-99.99,,,0.00,0,weatherlink.com 1.10,2013-08-29 03:38:00,
2013-08-28 23:53:00,68.7,68.0,29.90,ENE,57,0.0,-999.0,96,-99.99,,,0.00,0,weatherlink.com 1.10,2013-08-29 03:53:00,